CFL01 NZAR-NZAA

Flight info

Callsign CFL01
Flight time 0h -9m
Altitude 1500
Route VFR
Aircraft EC45/L-VGD/A

Departure

Time 2026-05-04 09:17
Airport Ardmore Airport (NZAR)

Arrival

Time 2026-05-04 09:08
Airport Auckland International Airport (NZAA)
Time Latitude Longitude Altitude Speed Heading
2026-05-04 09:07 -37.02715 174.97573 108 ft 0 kts 91°
2026-05-04 09:14 -37.02768 174.97562 1877 ft 2 kts 78°
2026-05-04 09:14 -37.02753 174.97541 1746 ft 4 kts 78°
2026-05-04 09:14 -37.02732 174.97516 1608 ft 4 kts 80°
2026-05-04 09:14 -37.02709 174.97491 1518 ft 4 kts 81°
2026-05-04 09:15 -37.02690 174.97464 1508 ft 4 kts 36°
2026-05-04 09:15 -37.02691 174.97429 1497 ft 5 kts 308°
2026-05-04 09:15 -37.02716 174.97422 1490 ft 4 kts 288°
2026-05-04 09:15 -37.02746 174.97434 1506 ft 5 kts 291°
2026-05-04 09:17 -37.02027 174.93751 1765 ft 76 kts 279°
2026-05-04 09:18 -37.01927 174.93060 1434 ft 71 kts 278°
2026-05-04 09:18 -37.01852 174.92488 1289 ft 63 kts 273°
2026-05-04 09:18 -37.01811 174.91973 1148 ft 57 kts 269°
2026-05-04 09:18 -37.01729 174.91504 1405 ft 55 kts 281°
2026-05-04 09:19 -37.01623 174.90883 1446 ft 94 kts 283°
2026-05-04 09:19 -37.01502 174.89946 1316 ft 116 kts 277°
2026-05-04 09:19 -37.01384 174.88909 1104 ft 126 kts 275°
2026-05-04 09:19 -37.01265 174.87901 1205 ft 105 kts 277°
2026-05-04 09:20 -37.01165 174.87088 1135 ft 88 kts 272°
2026-05-04 09:20 -37.01109 174.86375 921 ft 76 kts 269°
2026-05-04 09:20 -37.01039 174.85802 984 ft 60 kts 276°
2026-05-04 09:20 -37.00971 174.85291 828 ft 60 kts 268°
2026-05-04 09:21 -37.00892 174.84741 705 ft 70 kts 272°
2026-05-04 09:21 -37.00863 174.84095 615 ft 78 kts 265°
2026-05-04 09:21 -37.00801 174.83439 404 ft 64 kts 271°
2026-05-04 09:21 -37.00733 174.83015 537 ft 44 kts 268°
2026-05-04 09:22 -37.00656 174.82582 581 ft 67 kts 274°
2026-05-04 09:22 -37.00554 174.81840 304 ft 91 kts 271°
2026-05-04 09:22 -37.00465 174.81236 207 ft 48 kts 266°
2026-05-04 09:22 -37.00440 174.81082 218 ft 5 kts 269°
2026-05-04 09:23 -37.00400 174.80972 257 ft 31 kts 271°
2026-05-04 09:23 -37.00349 174.80586 148 ft 41 kts 268°
2026-05-04 09:23 -37.00341 174.80451 96 ft 8 kts 269°
2026-05-04 09:23 -37.00339 174.80424 91 ft 10 kts 271°
2026-05-04 09:25 -37.00339 174.80397 22 ft 0 kts 269°
2026-05-04 09:34 -36.98902 174.77340 1149 ft 110 kts 304°
2026-05-04 09:34 -36.98449 174.76576 1325 ft 114 kts 322°
2026-05-04 09:34 -36.97678 174.76329 1426 ft 117 kts 354°
2026-05-04 09:34 -36.96904 174.75961 1509 ft 124 kts 342°
2026-05-04 09:35 -36.96111 174.75594 1568 ft 98 kts 340°
2026-05-04 09:35 -36.95495 174.75273 1240 ft 92 kts 341°
2026-05-04 09:35 -36.94918 174.75072 1009 ft 75 kts 344°
2026-05-04 09:35 -36.94492 174.74964 1053 ft 52 kts 349°
2026-05-04 09:37 -36.91672 174.78023 1240 ft 115 kts 72°
2026-05-04 09:37 -36.91173 174.78846 1384 ft 104 kts 38°
2026-05-04 09:38 -36.90372 174.79177 1184 ft 131 kts
2026-05-04 09:38 -36.89638 174.79013 1226 ft 125 kts 345°
2026-05-04 09:38 -36.88890 174.78377 1425 ft 112 kts 316°
2026-05-04 09:38 -36.88181 174.77722 1145 ft 140 kts 333°
2026-05-04 09:39 -36.87371 174.77303 1192 ft 137 kts 346°
2026-05-04 09:39 -36.86530 174.77056 1229 ft 128 kts 353°
2026-05-04 09:39 -36.85778 174.76890 1246 ft 75 kts
2026-05-04 09:39 -36.85538 174.76794 999 ft 15 kts
2026-05-04 09:40 -36.85563 174.76814 973 ft 18 kts 189°
2026-05-04 09:40 -36.85861 174.76864 667 ft 19 kts 143°
2026-05-04 09:40 -36.85883 174.76851 587 ft 6 kts 139°
2026-05-04 09:40 -36.85899 174.76870 432 ft 5 kts 140°
2026-05-04 09:41 -36.85918 174.76874 269 ft 4 kts 142°
2026-05-04 09:42 -36.86039 174.76791 1877 ft 12 kts 146°
2026-05-04 09:43 -36.86105 174.76735 2142 ft 11 kts 154°
2026-05-04 09:43 -36.86060 174.76648 2040 ft 14 kts 155°
2026-05-04 09:43 -36.86083 174.76617 1975 ft 23 kts 153°
2026-05-04 09:43 -36.86357 174.76635 1922 ft 53 kts 121°
2026-05-04 09:44 -36.86919 174.76578 1495 ft 80 kts 176°
2026-05-04 09:44 -36.87263 174.76662 1467 ft 27 kts 138°
2026-05-04 09:44 -36.87370 174.76629 1432 ft 3 kts 270°
2026-05-04 09:46 -36.90425 174.77029 822 ft 10 kts 148°
2026-05-04 09:46 -36.90361 174.76999 1174 ft 6 kts 149°
2026-05-04 09:46 -36.90532 174.77083 1323 ft 58 kts 146°
2026-05-04 09:47 -36.91162 174.76997 1102 ft 108 kts 194°
2026-05-04 09:47 -36.91822 174.76674 1215 ft 98 kts 192°
2026-05-04 09:49 -36.97066 174.76523 1202 ft 85 kts 148°
2026-05-04 09:49 -36.97570 174.76699 1213 ft 74 kts 166°
2026-05-04 09:49 -36.98130 174.76939 1257 ft 94 kts 144°
2026-05-04 09:51 -37.00098 174.79786 390 ft 103 kts 116°
2026-05-04 09:51 -37.00325 174.80447 157 ft 49 kts 138°
2026-05-04 09:51 -37.00384 174.80605 327 ft 10 kts 304°
2026-05-04 09:51 -37.00338 174.80486 205 ft 13 kts 296°
2026-05-04 09:52 -37.00357 174.80435 98 ft 3 kts 297°
2026-05-04 09:52 -37.00339 174.80415 95 ft 2 kts 294°
2026-05-04 09:52 -37.00334 174.80401 92 ft 5 kts 294°
2026-05-04 09:52 -37.00327 174.80405 59 ft 3 kts 262°
2026-05-04 09:53 -37.00332 174.80393 26 ft 4 kts 266°
2026-05-04 09:53 -37.00335 174.80391 22 ft 1 kts 267°